Погода в Ильском

Россия / Краснодарский край     44°50′36″N   38°34′06″E
темп.,
°C
ветер,
м/с
пор.,
м/с
влажн.,
%
обл.,
%
осадки,
мм/ч
давл.,
гПа
погр.,
м
4 августа, ср
ср400:00+21з12900 0.0 101519
03:00+21ю11854 0.0 101411
06:00+20сз11931 0.0 101515
09:00+28ссв22555 0.0 1015612
12:00+33всв21353 0.0 10141680
15:00+36вюв122750 0.0 10123109
18:00+25с366220 0.4 1014170
21:00+21ссз12750 0.6 101518
5 августа, чт
чт500:00+20з11731 0.0 101412
03:00+19з11772 0.0 101411
06:00+20зюз117685 0.0 101511
09:00+27всв225199 0.0 1014504
12:00+33в22340 0.0 10131825
15:00+35вюв232924 0.0 10113007
18:00+31з344426 0.0 1010341
21:00+24з33530 0.0 101052
6 августа, пт
пт600:00+23зюз11550 0.0 100912
03:00+22ю22590 0.0 100828
06:00+22ю239415 0.0 100872
09:00+29ю22600 0.0 1007784
12:00+35ююв38350 0.0 10061757
15:00+36ю4531100 0.0 10042039
18:00+34ю234121 0.0 1003694
21:00+25зсз12640 0.0 100423
7 августа, сб
сб700:00+23з2277100 0.0 100318
03:00+22ююз227791 0.0 100213
06:00+22ю1174100 0.0 100312
09:00+29в2250100 0.0 1003386
12:00+36в4628100 0.0 10032254
15:00+36ю4524100 0.0 10032321
18:00+30вюв2344100 0.1 1004135
21:00+23ю236793 0.3 100637
8 августа, вс
вс800:00+23ююз376465 0.1 1007163
03:00+22ююз339372 0.1 100859
06:00+23ю2285100 0.2 100852
09:00+26ю1272100 0.3 1009121
12:00+30зюз0149100 0.4 1010920
15:00+33юз4531100 0.5 10092115
18:00+29юз344597 0.0 1010371
21:00+23зюз226696 0.1 101221